This is the latest recevied weather packets stored in our database for station/object F5OZP-13. If no packets are shown the sender has not sent any weather packets the latest 10 day(s).
| Time | Temp. | Humidity | Pressure | Rain* | Wind** | Luminosity | Snow |
|---|---|---|---|---|---|---|---|
| 1778069493 | 16.67° C | 99% | 1015 hPa | - | - | 0 W/m² | - |
| 1778069190 | 17.22° C | 99% | 1014.9 hPa | - | - | 0 W/m² | - |
| 1778068881 | 17.78° C | 99% | 1014.9 hPa | - | - | 0 W/m² | - |
| 1778068574 | 18.33° C | 99% | 1014.9 hPa | - | - | 4 W/m² | - |
| 1778068265 | 17.78° C | 99% | 1014.9 hPa | - | - | 16 W/m² | - |
| 1778067965 | 17.78° C | 99% | 1014.8 hPa | - | - | 38 W/m² | - |
| 1778067649 | 17.78° C | 99% | 1014.9 hPa | - | - | 1 W/m² | - |
| 1778067341 | 16.67° C | 99% | 1014.9 hPa | - | - | 2 W/m² | - |
| 1778067033 | 16.67° C | 99% | 1014.9 hPa | - | - | 0 W/m² | - |
| 1778066724 | 16.67° C | 99% | 1015 hPa | - | - | 0 W/m² | - |
| 1778066416 | 17.78° C | 99% | 1014.9 hPa | - | - | 0 W/m² | - |
| 1778066116 | 18.33° C | 99% | 1014.8 hPa | - | - | 0 W/m² | - |
| 1778065800 | 18.33° C | 99% | 1014.8 hPa | - | - | 15 W/m² | - |
| 1778065496 | 17.78° C | 99% | 1014.8 hPa | - | - | 18 W/m² | - |
| 1778065188 | 18.33° C | 99% | 1014.8 hPa | - | - | 12 W/m² | - |
| 1778064880 | 18.33° C | 99% | 1014.7 hPa | - | - | 15 W/m² | - |
| 1778064572 | 16.67° C | 99% | 1014.8 hPa | - | - | 2 W/m² | - |
| 1778064272 | 16.67° C | 99% | 1014.7 hPa | - | - | 3 W/m² | - |
| 1778063955 | 16.11° C | 99% | 1014.7 hPa | - | - | 0 W/m² | - |
| 1778063647 | 15.56° C | 99% | 1014.8 hPa | - | - | 0 W/m² | - |
| 1778063339 | 15.56° C | 99% | 1014.9 hPa | - | - | 0 W/m² | - |
| 1778063031 | 15° C | 99% | 1014.9 hPa | - | - | 0 W/m² | - |
| 1778062723 | 15.56° C | 99% | 1015 hPa | - | - | 0 W/m² | - |
| 1778062422 | 15° C | 99% | 1015 hPa | - | - | 0 W/m² | - |
| 1778062111 | 14.44° C | 99% | 1015 hPa | - | - | 0 W/m² | - |
* Rain since midnight (hover to see other rain measurements)
** Current wind speed in m/s (hover to see current wind gust speed)